Regional Weather Roundup
Issued by NWS Sioux Falls, SD

Home | Current Version | Previous Version | Graphics & Text | Print | Product List | Glossary Off
Versions: 1 2 3 4 5 6 7 8 9 10 11 12 13 14 15 16 17 18 19 20 21 22 23 24 25 26 27 28 29 30 31 32 33 34 35 36 37 38 39 40 41 42 43 44 45 46 47 48 49 50

000
ASUS43 KFSD 230510
RWRFSD

WEATHER ROUNDUP FOR SE SOUTH DAKOTA/SW MINNESOTA/NW IOWA
NATIONAL WEATHER SERVICE SIOUX FALLS SD
1200 AM CDT SUN APR 23 2017

NOTE: "FAIR" INDICATES FEW OR NO CLOUDS BELOW 12,000 FEET WITH NO
SIGNIFICANT WEATHER AND OR OBSTRUCTIONS TO VISIBILITY.


SDZ038>040-050-052>070-230600-
SOUTHEAST SOUTH DAKOTA

CITY           SKY/WX    TMP DP  RH WIND       PRES   REMARKS
BROOKINGS      CLEAR     49  37  63 SW6       30.13F
CHAMBERLAIN    CLEAR     52  39  59 SE12      30.09F
HURON          CLEAR     52  38  58 S10       30.09F
MADISON        FAIR      48  37  66 SW9       30.14S
MITCHELL       CLEAR     54  37  52 S10       30.13F
SIOUX FALLS    CLEAR     53  38  56 SW8       30.14F
WINNER         FAIR      52  32  46 S15       30.10F
YANKTON        CLEAR     52  34  50 S3        30.16F
$$

MNZ071-072-080-081-089-090-097-098-230600-
SOUTHWEST MINNESOTA

CITY           SKY/WX    TMP DP  RH WIND       PRES   REMARKS
FAIRMONT       CLEAR     51  39  63 SW8       30.14S
JACKSON        CLEAR     50  34  53 SW6       30.15S
LUVERNE        CLEAR     46  34  61 SW9       30.15F
MARSHALL       CLEAR     51  37  58 SW10      30.12S
MONTEVIDEO     CLEAR     55  37  50 W7        30.09F
PIPESTONE      CLEAR     46  36  66 SW7       30.14S
REDWOOD FALLS  CLEAR     53  35  50 SW8       30.11S
TRACY          CLEAR     50  39  67 SW8       30.13S
WINDOM         CLEAR     50  36  57 SW6       30.14S
WORTHINGTON    CLEAR     52  35  52 SW12      30.15F
$$

IAZ001>003-012>014-020>022-031-032-NEZ013-014-SDZ071-230600-
NORTHWEST IOWA

CITY           SKY/WX    TMP DP  RH WIND       PRES   REMARKS
CHEROKEE       CLEAR     45  39  80 S3        30.17F
DENISON        CLEAR     43  36  75 CALM      30.20S
ESTHERVILLE    CLEAR     45  36  70 SW8       30.14F
LE MARS        CLEAR     43  37  81 S3        30.18F
ORANGE CITY    CLEAR     48  36  61 SW8       30.17S
SHELDON        CLEAR     50  34  53 SW7       30.15S
SIOUX CITY     CLEAR     49  35  58 CALM      30.19R
SPENCER        CLEAR     42  35  76 W8        30.16S
STORM LAKE     CLEAR     55  30  38 W9        30.18S
$$

ABBREVIATIONS USED IN REMARKS
   TC - TEMPERATURE IN CELSIUS
  WCI - WIND CHILL INDEX
   HX - HEAT INDEX
  VSB - VISIBILITY





USA.gov is the U.S. government's official web portal to all federal, state and local government web resources and services.